West Paducah, KY

6:08 AM CST on February 25, 2017 (GMT -0600)
Barkley Regional

Weather History for KPAH - November, 2012

Change the Weather History Date:

Thursday, November 8, 2012

  Actual Average Record
Temperature  
Mean Temperature 43 °F 51 °F  
Max Temperature 56 °F 62 °F 85 °F (1946)
Min Temperature 29 °F 41 °F 18 °F (1991)
Degree Days  
Heating Degree Days 22 14  
Month to date heating degree days 146 102  
Since 1 July heating degree days 466 369  
Cooling Degree Days 0 0  
Month to date cooling degree days 0 0  
Year to date cooling degree days 1977 1538  
Moisture  
Dew Point 34 °F    
Average Humidity 75    
Maximum Humidity 100    
Minimum Humidity 50    
Precipitation  
Precipitation 0.00 in 0.13 in 1.12 in (2000)
Month to date precipitation 0.09 1.01  
Year to date precipitation 24.19 41.20  
Snow  
Snow 0.00 in 0.00 in T in (1995)
Month to date snowfall 0.0 0.0  
Since 1 July snowfall 0.0 0.1  
Since 1 September snowfall 0.0 0.1  
Snow Depth 0.00 in    
Sea Level Pressure  
Sea Level Pressure 30.21 in    
Wind  
Wind Speed 3 mph (South)    
Max Wind Speed 10 mph    
Max Gust Speed 13 mph    
Visibility 5 miles    
Events Fog    
T = Trace of Precipitation, MM = Missing Value Source: NWS Daily Summary

Daily Weather History Graph

Daily Weather History Graph

Search for Another Location

Airport or City:

Trip Planner

Search our weather history database for the weather conditions in past years. The results will help you decide how hot, cold, wet, or windy it might be!

Date:

Astronomy

Nov. 08, 2012 Rise Set
Actual Time 6:26 AM CST 4:50 PM CST
Civil Twilight 5:59 AM CST 5:17 PM CST
Nautical Twilight 5:28 AM CST 5:48 PM CST
Astronomical Twilight 4:58 AM CST 6:19 PM CST
Moon 12:30 AM CST (11/8) 1:24 PM CST (11/8)
Length of Visible Light 11h 17m
Length of Day
10h 23m
Waning Crescent, 32% of the Moon is Illuminated
Nov 8
Waning Crescent
Nov 13
New
Nov 20
First Quarter
Nov 28
Full
Dec 6
Last Quarter

Hourly Weather History & Observations

Time (CST) Temp. Windchill Dew Point Humidity Pressure Visibility Wind Dir Wind Speed Gust Speed Precip Events Conditions
12:53 AM 37.0 °F - 36.0 °F 96% 30.19 in 5.0 mi Calm Calm - N/A   Clear
1:53 AM 32.0 °F - 30.0 °F 92% 30.20 in 2.5 mi Calm Calm - N/A   Clear
2:29 AM 33.8 °F - 33.8 °F 100% 30.20 in 1.5 mi Calm Calm - N/A   Clear
2:53 AM 33.1 °F - 32.0 °F 96% 30.20 in 1.5 mi Calm Calm - N/A   Clear
3:01 AM 30.2 °F - 30.2 °F 100% 30.20 in 3.0 mi Calm Calm - N/A   Clear
3:16 AM 32.0 °F - 30.2 °F 93% 30.20 in 1.8 mi Calm Calm - N/A   Clear
3:20 AM 33.8 °F - 32.0 °F 93% 30.20 in 1.0 mi Calm Calm - N/A   Mist
3:40 AM 30.2 °F - 30.2 °F 100% 30.20 in 0.5 mi Calm Calm - N/A Fog Light Freezing Fog
3:49 AM 30.2 °F - 30.2 °F 100% 30.20 in 0.2 mi Calm Calm - N/A Fog Light Freezing Fog
3:53 AM 30.9 °F - 30.0 °F 96% 30.21 in 0.5 mi Calm Calm - N/A Fog Light Freezing Fog
4:04 AM 30.2 °F - 30.2 °F 100% 30.20 in 0.8 mi Calm Calm - N/A   Mist
4:14 AM 30.2 °F - 30.2 °F 100% 30.21 in 0.2 mi Calm Calm - N/A Fog Light Freezing Fog
4:22 AM 30.2 °F - 28.4 °F 93% 30.21 in 1.2 mi Calm Calm - N/A   Mostly Cloudy
4:30 AM 30.2 °F - 28.4 °F 93% 30.22 in 0.2 mi Calm Calm - N/A Fog Light Freezing Fog
4:53 AM 30.0 °F - 28.9 °F 96% 30.23 in 0.2 mi Calm Calm - N/A Fog Light Freezing Fog
5:07 AM 30.2 °F - 28.4 °F 93% 30.22 in 0.2 mi Calm Calm - N/A Fog Light Freezing Fog
5:53 AM 30.0 °F - 28.9 °F 96% 30.23 in 0.2 mi Calm Calm - N/A Fog Light Freezing Fog
6:53 AM 30.0 °F - 28.9 °F 96% 30.25 in 0.2 mi Calm Calm - N/A Fog Light Freezing Fog
7:53 AM 33.1 °F - 33.1 °F 100% 30.27 in 0.2 mi Calm Calm - N/A Fog Fog
8:53 AM 39.0 °F - 39.0 °F 100% 30.28 in 0.2 mi Calm Calm - N/A Fog Fog
9:11 AM 42.8 °F - 41.0 °F 93% 30.27 in 1.0 mi Calm Calm - N/A   Overcast
9:19 AM 42.8 °F - 42.8 °F 100% 30.27 in 3.0 mi Calm Calm - N/A   Mostly Cloudy
9:33 AM 44.6 °F - 42.8 °F 93% 30.27 in 5.0 mi Calm Calm - N/A   Scattered Clouds
9:53 AM 46.0 °F 43.9 °F 42.1 °F 86% 30.28 in 7.0 mi ESE 4.6 mph - N/A   Clear
10:53 AM 51.1 °F - 37.9 °F 61% 30.26 in 10.0 mi SSW 9.2 mph - N/A   Clear
11:53 AM 53.1 °F - 37.9 °F 57% 30.23 in 10.0 mi SW 8.1 mph - N/A   Clear
12:53 PM 54.0 °F - 36.0 °F 51% 30.20 in 10.0 mi Variable 3.5 mph - N/A   Clear
1:53 PM 55.0 °F - 37.0 °F 51% 30.19 in 10.0 mi Variable 5.8 mph - N/A   Clear
2:53 PM 55.0 °F - 37.0 °F 51% 30.18 in 10.0 mi SW 4.6 mph - N/A   Clear
3:53 PM 55.0 °F - 37.0 °F 51% 30.17 in 10.0 mi South 6.9 mph - N/A   Clear
4:53 PM 52.0 °F - 36.0 °F 54% 30.17 in 10.0 mi South 3.5 mph - N/A   Clear
5:53 PM 48.9 °F - 36.0 °F 61% 30.17 in 10.0 mi South 3.5 mph - N/A   Clear
6:53 PM 44.1 °F 42.5 °F 36.0 °F 73% 30.18 in 10.0 mi SSW 3.5 mph - N/A   Clear
7:53 PM 46.9 °F - 36.0 °F 66% 30.17 in 10.0 mi Calm Calm - N/A   Clear
8:53 PM 45.0 °F 43.5 °F 36.0 °F 71% 30.16 in 10.0 mi SSE 3.5 mph - N/A   Clear
9:53 PM 39.0 °F - 35.1 °F 86% 30.16 in 10.0 mi Calm Calm - N/A   Clear
10:53 PM 39.0 °F - 35.1 °F 86% 30.15 in 10.0 mi Calm Calm - N/A   Clear
11:53 PM 41.0 °F 38.0 °F 35.1 °F 79% 30.15 in 9.0 mi South 4.6 mph - N/A   Clear